Wind_Speed
12 13 13 13 14 14 14 13 14 15 16 16 16 17 18 18 18 19 19 18 18 18 19 19 19 19 18 18 19 19 19 19 18 19 20 20 20 20 20 20 20 19 18
11 12 12 13 14 13 13 13 14 15 15 16 16 16 17 18 18 20 19 19 19 19 19 20 19 19 19 19 19 21 20 20 20 20 21 21 20 20 21 21 21 20 20
10 10 11 12 13 13 14 14 14 16 17 17 17 16 16 17 18 19 18 19 20 19 19 20 20 20 20 20 20 21 22 21 20 20 21 22 22 21 21 21 21 21 21
11 11 11 12 13 13 14 14 15 15 16 16 16 17 17 17 17 18 18 18 18 18 19 20 21 22 22 21 21 21 22 21 21 21 21 22 22 22 22 22 21 21 21
13 13 13 12 12 13 13 13 14 14 15 16 17 17 17 17 17 17 18 19 19 19 20 21 22 23 23 23 22 22 22 23 22 22 22 22 23 23 23 23 23 23 22
13 13 13 12 13 13 13 13 13 14 14 15 16 17 17 16 17 18 18 19 19 20 21 22 22 22 23 24 24 23 23 23 24 23 22 23 24 24 25 24 24 24 24
13 13 13 13 13 13 14 14 14 15 14 15 15 16 17 17 18 18 18 18 19 20 21 21 22 22 23 24 24 25 24 24 24 25 25 25 25 25 25 25 25 24 24
12 12 12 12 13 14 14 14 14 14 15 16 15 16 17 18 18 18 19 19 20 20 21 21 21 22 22 23 25 25 26 25 26 26 26 26 26 26 26 27 27 26 26
11 12 12 12 12 14 14 13 14 14 14 14 15 16 17 18 18 19 18 19 20 20 20 20 21 22 23 24 25 26 26 26 27 27 27 27 27 27 28 28 28 28 27
10 11 12 12 12 12 13 13 13 14 14 13 14 15 16 16 17 18 19 19 20 21 21 21 21 22 23 23 24 24 25 26 27 28 29 28 28 28 28 29 29 28 28
10 10 11 11 11 11 12 13 13 14 14 14 14 14 15 16 17 18 18 19 20 20 21 21 22 22 22 23 23 23 24 26 27 28 29 29 29 29 30 30 30 30 30
11 10 11 11 11 12 13 13 14 14 14 14 15 15 16 17 18 18 19 19 20 20 21 22 22 23 23 24 24 25 25 26 27 28 29 30 30 31 31 30 31 31 31
11 10 10 10 11 12 12 13 14 14 14 15 16 17 17 17 18 18 18 18 19 20 20 20 21 22 23 24 25 25 25 26 27 28 29 30 30 31 32 32 32 32 32
10 10 10 11 11 12 13 13 14 15 15 15 16 16 16 16 17 17 17 18 19 19 18 19 20 21 21 22 24 25 25 26 27 27 28 29 29 30 31 32 32 33 33
11 11 11 12 12 13 13 13 14 14 15 15 15 15 15 15 15 15 16 16 17 17 18 18 19 20 21 22 23 23 25 26 26 26 27 28 28 29 30 31 32 32 33
11 11 11 12 12 12 13 13 14 14 15 15 14 15 15 14 14 15 16 17 17 18 18 18 19 20 20 21 21 22 24 24 25 26 27 28 29 29 30 30 31 32 33
12 12 12 13 13 13 13 13 13 13 14 15 14 14 14 14 14 15 16 17 18 18 18 19 20 20 20 21 21 22 22 24 25 27 28 29 29 30 31 31 32 32 32
12 12 12 13 14 14 14 14 14 14 15 15 15 15 15 14 14 14 15 17 17 17 18 19 20 20 21 21 21 22 23 24 25 26 27 29 30 30 31 32 32 32 32
13 13 13 14 15 15 15 14 14 14 15 15 16 16 15 15 15 15 16 17 17 18 18 19 19 20 20 21 21 22 23 24 25 26 26 27 29 29 30 31 31 32 33
15 14 15 15 15 15 15 14 15 15 15 16 17 17 16 16 16 17 17 18 18 19 19 19 19 19 20 21 21 22 22 23 24 25 25 26 27 28 28 30 31 31 32
16 15 16 16 15 15 15 15 15 15 16 17 17 17 17 17 18 19 19 20 20 20 20 20 20 19 19 20 21 22 22 23 23 24 24 25 25 26 27 28 29 30 31
16 16 16 16 15 15 16 16 17 17 17 18 18 19 19 19 19 20 20 21 21 21 21 21 21 21 21 22 22 22 22 22 23 23 23 23 24 25 26 28 28 30 30
16 16 15 16 16 16 17 17 18 18 19 19 20 20 19 20 20 21 21 21 21 21 21 22 22 22 22 22 23 23 23 22 23 23 23 23 24 25 26 27 28 28 30
17 16 17 17 17 17 17 18 18 19 20 20 21 20 20 21 22 22 22 21 21 20 21 21 22 22 22 22 23 23 23 22 22 23 23 23 23 25 27 28 27 28 29
18 18 18 18 18 18 18 18 19 19 20 20 20 20 21 21 21 22 22 21 21 21 21 21 22 22 22 23 24 24 23 23 23 22 23 23 23 25 25 27 28 28 29
18 19 19 19 19 19 19 19 19 20 20 21 21 21 21 21 21 21 21 21 21 20 21 21 20 20 21 22 23 23 23 24 24 23 23 24 25 26 26 27 28 29 30
Wind_Direction
271 274 274 271 270 266 266 266 266 266 264 263 264 263 264 260 257 258 257 254 255 255 252 251 252 255 255 253 250 249 249 246 245 246 246 245 244 244 245 245 245 245 245
274 276 274 275 273 271 269 269 271 270 266 267 266 265 265 263 262 259 258 256 255 255 255 253 252 253 252 251 252 250 249 248 248 247 246 245 245 246 245 246 245 245 245
274 277 277 276 276 274 272 273 275 270 266 266 266 266 267 263 262 260 260 259 253 254 254 254 252 252 250 250 252 251 250 250 250 249 248 247 247 248 246 246 245 245 245
273 277 276 276 276 275 274 275 276 271 269 268 267 267 268 267 267 265 263 260 257 257 256 256 254 252 250 250 251 252 251 250 250 249 248 248 248 248 248 245 245 246 245
277 276 276 277 279 281 279 274 274 272 271 269 268 268 269 267 266 265 264 263 261 258 256 257 255 252 250 249 249 250 250 249 250 251 249 248 248 248 248 246 245 245 245
280 278 279 279 279 281 280 276 274 273 274 272 270 268 265 265 266 269 268 265 264 262 258 258 257 253 252 250 248 248 250 250 252 252 251 250 251 249 247 246 245 244 245
285 285 283 281 280 282 281 278 279 276 276 275 274 270 268 268 270 271 269 265 265 264 261 261 260 255 253 250 249 248 249 250 252 252 252 252 252 250 247 246 244 244 244
288 287 286 287 286 285 284 280 282 280 280 277 273 272 273 272 274 273 270 266 265 265 261 260 259 259 257 253 253 250 250 250 251 251 251 251 252 250 248 247 246 245 244
290 288 288 292 285 285 286 286 283 285 286 281 275 275 275 272 272 273 272 269 268 268 266 262 260 261 259 255 255 254 251 250 251 252 252 252 252 251 248 247 246 246 246
293 291 291 290 288 289 292 293 290 289 292 291 285 280 276 276 275 273 272 271 268 267 266 263 263 263 262 258 256 253 252 251 251 252 252 252 252 252 250 247 246 247 247
292 293 292 293 291 293 294 294 295 293 293 293 291 285 281 279 277 274 271 271 271 269 268 266 263 264 263 259 257 254 253 252 252 252 251 251 251 252 251 249 248 247 247
290 294 297 294 292 292 294 295 296 297 296 295 292 287 283 281 280 276 273 272 271 270 268 268 267 265 262 259 259 257 255 253 254 253 251 252 252 252 250 250 249 249 248
291 294 297 297 296 296 299 299 298 300 298 297 293 289 286 283 282 278 275 273 271 271 270 269 267 266 264 261 260 258 255 253 253 254 252 252 252 251 251 250 249 249 248
295 295 297 298 298 297 300 301 303 302 301 300 295 291 289 284 283 281 277 275 273 272 270 270 269 268 267 265 263 260 258 256 254 254 252 251 252 251 251 251 250 249 248
298 295 292 295 298 297 300 304 307 304 303 302 297 294 291 288 285 282 279 279 278 275 272 273 271 268 267 267 266 263 260 259 257 255 253 252 252 251 252 252 251 250 249
301 297 293 294 298 298 302 305 304 305 304 303 298 295 294 290 285 282 281 280 281 280 276 274 274 271 269 268 269 267 265 261 259 257 256 254 253 252 251 251 251 252 251
298 295 295 295 296 298 302 305 304 305 308 309 307 302 299 289 285 285 284 285 283 281 279 276 274 273 273 272 273 270 268 265 264 261 259 258 257 254 252 251 251 252 251
297 298 297 296 295 295 297 299 302 305 308 309 310 308 304 301 296 291 292 290 287 286 284 280 275 274 275 274 272 271 269 268 266 267 264 260 258 256 254 252 252 252 251
290 292 295 298 296 296 295 296 301 304 307 309 309 307 304 303 302 299 297 296 292 290 288 285 282 278 276 274 272 272 271 270 269 269 268 264 259 257 255 253 253 253 252
291 291 295 300 301 299 296 295 299 302 305 306 305 303 301 301 300 300 298 296 295 293 291 288 286 282 281 277 275 275 273 271 269 268 267 266 262 258 255 254 253 252 251
297 297 298 299 299 297 296 295 296 299 302 304 305 304 301 300 300 300 299 297 294 292 289 288 285 284 284 282 279 277 276 273 271 270 269 268 263 258 254 253 253 252 252
295 295 296 297 297 295 295 294 294 297 301 303 304 304 301 298 300 301 300 298 296 292 288 286 284 283 282 283 282 280 277 275 274 272 271 268 264 261 257 257 254 252 252
294 294 295 297 297 296 295 295 297 297 298 299 301 302 300 299 299 300 301 301 300 296 292 288 284 283 283 282 281 280 278 276 275 273 271 268 266 264 262 261 258 255 254
293 293 294 297 296 296 297 296 297 297 297 298 301 300 300 300 298 298 298 299 299 297 295 290 285 284 282 281 281 281 280 277 277 275 272 270 268 268 265 261 258 256 256
291 292 293 295 297 298 297 296 297 298 299 299 299 300 300 301 300 300 298 297 296 297 297 294 290 285 282 281 281 281 280 277 276 274 274 272 271 269 267 264 262 260 260
289 290 292 293 294 295 296 296 296 298 299 299 300 301 302 302 301 301 300 298 296 296 297 296 293 289 286 282 281 280 279 276 275 276 275 275 274 272 268 265 264 263 263
Height
5844 5845 5844 5844 5844 5844 5844 5843 5843 5843 5843 5844 5844 5844 5844 5844 5844 5845 5846 5846 5847 5848 5848 5849 5849 5849 5850 5850 5851 5851 5852 5853 5854 5855 5856 5857 5858 5860 5861 5862 5864 5865 5866
5842 5841 5841 5841 5841 5840 5840 5840 5839 5839 5839 5839 5840 5840 5839 5840 5840 5840 5840 5841 5842 5843 5843 5844 5844 5845 5845 5846 5846 5847 5847 5848 5849 5850 5852 5853 5854 5855 5856 5858 5859 5861 5862
5838 5838 5838 5838 5837 5837 5836 5836 5836 5835 5835 5835 5835 5835 5835 5835 5835 5835 5835 5836 5837 5837 5838 5838 5839 5839 5840 5840 5841 5842 5843 5843 5844 5845 5847 5848 5850 5851 5852 5853 5855 5856 5858
5835 5835 5835 5835 5834 5833 5833 5832 5831 5831 5830 5830 5830 5830 5830 5830 5831 5831 5831 5831 5832 5832 5833 5833 5833 5834 5834 5835 5836 5836 5837 5839 5839 5841 5842 5843 5845 5846 5847 5849 5850 5852 5853
5832 5832 5831 5831 5831 5830 5829 5828 5827 5826 5826 5826 5825 5825 5825 5826 5826 5826 5826 5827 5827 5827 5827 5827 5828 5828 5828 5829 5830 5831 5832 5833 5834 5835 5837 5838 5840 5841 5842 5844 5845 5847 5848
5829 5828 5828 5827 5827 5826 5825 5824 5823 5822 5822 5821 5821 5820 5821 5821 5821 5821 5821 5821 5822 5822 5822 5822 5822 5822 5822 5823 5825 5826 5827 5828 5829 5830 5831 5833 5834 5835 5837 5838 5840 5842 5843
5825 5825 5824 5824 5823 5823 5821 5820 5819 5818 5817 5817 5816 5816 5816 5816 5816 5816 5816 5816 5816 5816 5816 5816 5816 5816 5817 5818 5819 5820 5821 5823 5824 5825 5826 5827 5828 5830 5831 5833 5834 5836 5838
5821 5821 5820 5820 5819 5819 5817 5816 5815 5814 5813 5812 5812 5811 5811 5811 5810 5810 5810 5810 5810 5810 5810 5810 5810 5810 5811 5812 5813 5814 5816 5817 5818 5819 5820 5822 5823 5824 5825 5827 5829 5830 5832
5818 5817 5817 5816 5815 5814 5813 5812 5811 5810 5809 5808 5807 5807 5806 5805 5805 5805 5804 5804 5804 5804 5804 5804 5804 5805 5805 5806 5807 5808 5809 5810 5812 5813 5814 5815 5816 5817 5819 5820 5822 5824 5826
5815 5814 5813 5812 5811 5811 5809 5808 5807 5806 5805 5803 5802 5802 5801 5800 5800 5800 5799 5799 5798 5798 5798 5798 5799 5799 5799 5799 5800 5801 5802 5803 5804 5806 5807 5808 5809 5811 5812 5814 5816 5818 5819
5812 5811 5810 5809 5808 5807 5806 5805 5804 5803 5801 5799 5798 5797 5796 5795 5795 5794 5794 5793 5793 5792 5792 5792 5792 5792 5792 5793 5793 5794 5795 5796 5797 5799 5800 5801 5802 5804 5805 5807 5809 5811 5813
5809 5808 5807 5806 5805 5804 5803 5801 5800 5798 5797 5795 5794 5793 5792 5791 5790 5789 5788 5788 5787 5787 5786 5786 5786 5786 5786 5786 5787 5787 5788 5789 5790 5791 5792 5794 5795 5796 5798 5799 5801 5803 5805
5806 5805 5804 5803 5802 5801 5799 5798 5796 5794 5793 5791 5789 5788 5786 5785 5784 5784 5783 5782 5781 5781 5780 5780 5779 5779 5779 5780 5780 5780 5781 5782 5783 5784 5785 5786 5787 5789 5790 5792 5794 5795 5797
5803 5801 5801 5800 5799 5797 5796 5794 5793 5791 5789 5787 5785 5783 5781 5780 5779 5778 5777 5776 5776 5775 5775 5774 5773 5773 5773 5773 5773 5773 5773 5774 5775 5776 5778 5779 5780 5781 5782 5784 5785 5787 5789
5800 5798 5797 5796 5795 5794 5793 5791 5789 5787 5785 5783 5781 5779 5777 5776 5774 5773 5772 5771 5771 5770 5770 5769 5768 5767 5767 5767 5767 5767 5767 5767 5768 5769 5770 5771 5772 5773 5775 5776 5777 5779 5780
5797 5796 5794 5793 5792 5790 5789 5787 5786 5784 5782 5780 5777 5775 5773 5772 5770 5769 5768 5767 5766 5765 5764 5764 5762 5762 5761 5760 5760 5760 5760 5760 5761 5761 5762 5763 5764 5765 5766 5767 5769 5770 5772
5794 5793 5791 5790 5788 5787 5785 5784 5782 5780 5778 5776 5774 5771 5769 5768 5766 5764 5763 5762 5761 5760 5759 5758 5757 5756 5755 5754 5753 5753 5753 5753 5754 5754 5754 5755 5755 5756 5757 5758 5760 5761 5763
5790 5789 5787 5786 5784 5782 5781 5780 5778 5777 5775 5773 5770 5768 5766 5764 5762 5760 5759 5757 5756 5754 5753 5752 5751 5750 5749 5748 5747 5747 5746 5746 5746 5746 5746 5747 5747 5748 5749 5750 5751 5752 5754
5786 5785 5783 5782 5780 5778 5777 5776 5775 5773 5771 5769 5767 5764 5762 5760 5758 5757 5755 5753 5751 5749 5748 5746 5745 5744 5743 5742 5741 5740 5740 5739 5739 5739 5738 5738 5738 5739 5740 5741 5742 5744 5745
5781 5780 5779 5777 5776 5774 5773 5772 5771 5769 5767 5765 5762 5760 5758 5756 5754 5752 5750 5748 5746 5744 5742 5741 5740 5738 5737 5735 5735 5734 5733 5732 5732 5731 5730 5730 5730 5730 5731 5732 5734 5735 5736
5777 5776 5775 5773 5772 5770 5769 5767 5766 5764 5762 5760 5758 5756 5753 5751 5749 5747 5745 5743 5741 5739 5737 5735 5734 5733 5731 5730 5728 5727 5726 5725 5725 5724 5723 5722 5722 5722 5723 5723 5724 5726 5727
5773 5772 5770 5769 5767 5766 5764 5763 5761 5759 5758 5755 5753 5751 5749 5746 5744 5742 5739 5737 5735 5733 5731 5729 5728 5727 5725 5724 5722 5720 5719 5719 5719 5718 5716 5716 5715 5715 5715 5716 5717 5718 5719
5769 5767 5765 5764 5763 5761 5759 5758 5756 5754 5753 5750 5748 5746 5743 5741 5739 5736 5733 5731 5728 5726 5725 5723 5721 5720 5719 5717 5716 5714 5713 5712 5711 5711 5710 5709 5709 5708 5708 5708 5709 5709 5710
5764 5762 5761 5759 5758 5756 5754 5753 5751 5749 5747 5745 5743 5740 5738 5735 5733 5730 5728 5725 5723 5721 5718 5716 5715 5713 5712 5710 5709 5707 5706 5705 5705 5704 5703 5703 5702 5701 5701 5700 5700 5701 5702
5759 5758 5756 5754 5753 5751 5749 5748 5746 5744 5742 5739 5737 5734 5732 5729 5727 5724 5722 5719 5717 5715 5712 5710 5708 5706 5705 5703 5702 5701 5699 5699 5698 5697 5696 5696 5695 5694 5693 5693 5693 5694 5694
5754 5752 5751 5749 5748 5746 5744 5742 5740 5738 5736 5734 5731 5729 5726 5724 5721 5718 5716 5713 5711 5709 5706 5704 5702 5700 5698 5697 5695 5694 5692 5691 5691 5690 5689 5688 5687 5686 5686 5686 5686 5686 5686